Flag for Germany Weather past 2 weeks in Witten, North Rhine-Westphalia, Germany

Now
72 °F

Scattered clouds.


Feels Like: 77 °F
Forecast: 59 / 82 °F
Wind: 13 mph from West

Location: Dortmund / Wickede

Current Time: Jul 6, 2015 at 2:17:44 PM

Latest Report: Jul 6, 2015 at 1:50 PM


Visibility: N/A

Pressure: 30.15 "Hg

Humidity: 47%

Dew point: 50 °F

Location of WittenLocation

Historic Weather in Witten — Graph

°F

Witten temperature yesterday

Maximum temperature yesterday: 81 °F (at 1:50 PM)
Minimum temperature yesterday: 64 °F (at 9:20 PM)
Average temperature yesterday: 71 °F

Past Weeks' High & Low Weather Summary

 TemperatureHumidityPressure
High97 °F (Jul 2, 2:50 PM)94% (Jun 23, 5:50 AM)30.24 "Hg (Jun 23, 5:50 AM)
Low48 °F (Jun 23, 5:20 AM)22% (Jul 2, 3:20 PM)29.68 "Hg (Jun 22, 7:50 PM)
Average70 °F59%30.06 "Hg
* Reported Jun 21 1:20 PM — Jul 6 1:20 PM, Witten, Weather by CustomWeather, © 2015

Note: Actual official high and low records may vary slightly from our data, if they occured in-between our weather recording intervals... More about our weather records

Advertising

Witten weather history for previous 24 hours

 ConditionsComfort  
Time TempWeatherWind HumidityBarometerVisibility
1:20 PM
Mon, Jul 6
70 °FScattered clouds.13 mph46%30.15 "HgN/A
12:50 PM68 °FScattered clouds.12 mph53%30.15 "HgN/A
12:20 PM68 °FScattered clouds.12 mph56%30.15 "HgN/A
11:50 AM68 °FPartly sunny.10 mph64%30.18 "HgN/A
11:20 AM66 °FScattered clouds.9 mph64%30.18 "HgN/A
10:50 AM66 °FScattered clouds.8 mph68%30.18 "HgN/A
10:20 AM64 °FScattered clouds.9 mph68%30.18 "HgN/A
9:50 AM63 °FPassing clouds.12 mph73%30.18 "HgN/A
9:20 AM63 °FPassing clouds.12 mph73%30.15 "HgN/A
8:50 AM61 °FPassing clouds.10 mph72%30.15 "HgN/A
8:20 AM61 °FPassing clouds.12 mph77%30.15 "HgN/A
7:50 AM61 °FSunny.12 mph72%30.15 "Hg10 mi
7:20 AM59 °FSunny.12 mph82%30.12 "Hg10 mi
6:50 AM59 °FSunny.8 mph82%30.12 "Hg10 mi
6:20 AM59 °FSunny.9 mph82%30.12 "Hg10 mi
5:50 AM59 °FPassing clouds.8 mph82%30.12 "HgN/A
5:20 AM59 °FPassing clouds.5 mph82%30.12 "HgN/A
10:50 PM
Sun, Jul 5
64 °FThundershowers. Passing clouds.3 mph83%30.01 "HgN/A
10:20 PM64 °FThundershowers. Partly sunny.5 mph83%30.01 "HgN/A
9:50 PM64 °FSprinkles. Scattered clouds.3 mph83%29.98 "HgN/A
9:20 PM64 °FSprinkles. Partly sunny.5 mph78%29.98 "HgN/A
8:50 PM68 °FThundershowers. Partly sunny.5 mph69%29.98 "HgN/A
8:20 PM68 °FScattered clouds.6 mph64%29.98 "HgN/A
7:50 PM70 °FPartly sunny.10 mph64%29.95 "HgN/A
7:20 PM70 °FThundershowers. Partly sunny.10 mph69%29.98 "HgN/A
6:50 PM73 °FThundershowers. Scattered clouds.9 mph65%29.92 "HgN/A
6:20 PM79 °FPartly sunny.2 mph65%29.89 "HgN/A
5:50 PM81 °FPassing clouds.5 mph58%29.89 "HgN/A
5:20 PM81 °FPassing clouds.13 mph58%29.89 "HgN/A
4:50 PM79 °FPassing clouds.7 mph58%29.86 "HgN/A
4:20 PM79 °FPassing clouds.6 mph58%29.92 "HgN/A
3:50 PM79 °FPassing clouds.9 mph61%29.92 "HgN/A
3:20 PM75 °FThundershowers. Scattered clouds.12 mph65%29.92 "HgN/A
2:50 PM77 °FThundershowers. Scattered clouds.9 mph57%29.92 "HgN/A
2:20 PM81 °FThundershowers. Scattered clouds.17 mph45%29.95 "HgN/A
Weather by CustomWeather, © 2015

See weather overviewHow to use our weather pages